Location: Arbon
(43.0005°N, 0.7472°E)
Time: 09:58:00
(UTC+00:00)

SR - Pass Details

Date: 29 November 2020
Orbit: 575 x 880 km, 66.7° (Epoch: 21 January)

Event Time Altitude Azimuth Distance (km) Brightness Sun altitude
Rises 01:35:45 0° 338° (NNW) 3,150 - -58.6°
Reaches altitude 10° 01:38:37 10° 355° (N) 2,284 - -58.1°
Maximum altitude 01:42:35 21° 44° (NE) 1,711 - -57.5°
Drops below altitude 10° 01:46:45 10° 92° (E) 2,421 - -56.9°
Sets 01:49:53 0° 108° (ESE) 3,395 - -56.4°
